[[{"header":{"parameterUnit":"m.s-1","parameterCategory":1,"la1":30.2991,"la2":30.254,"lo1":-89.0895,"lo2":-89.0444,"dy":0.0017,"dx":0.0017,"nx":28,"ny":28,"refTime":"2024-05-30T03:00:00:Z","depth":0,"parameterNumber":2,"parameterNumberName":"U-component_of_WINDS"},"data":[0,0,0,0,0,0,0,0,0,0,0,0,0,0,0,0,0,0,0,0,0,0,0,0,0,0,0,0,0,0,0,0,0,0,0,0,0,0,0,0,0,0,0,0,0,0,0,0,0,0,0,0,0,0,0,0,0,0,-3.4675,-3.4676,0,-3.4741,-3.4742,-3.4743,-3.4716,-3.4715,-3.4713,-3.4712,-3.4778,-3.4781,-3.4785,0,0,0,0,0,0,0,0,0,0,0,0,0,-3.4525,-3.4528,-3.4675,-3.4676,-3.4677,-3.4741,-3.4742,-3.4743,-3.4717,-3.4715,-3.4713,-3.4711,-3.4777,-3.4781,-3.4785,0,0,0,0,0,0,0,0,0,0,0,0,0,-3.459,-3.4529,-3.4675,-3.4671,-3.4672,-3.4741,-3.4742,-3.4743,-3.4717,-3.4715,-3.4712,-3.471,-3.4776,-3.4781,-3.4785,-3.4862,0,0,-3.48,-3.4802,0,0,0,0,0,0,0,0,-3.4587,-3.4596,-3.4671,-3.4672,-3.4672,-3.4718,-3.4714,-3.4783,-3.4718,-3.47,-3.4712,-3.4709,-3.476,-3.4766,-3.4784,-3.4865,-3.4868,-3.4801,-3.4804,-3.4806,-3.4807,0,0,0,0,0,0,0,-3.4582,-3.4593,-3.4701,-3.4672,-3.4673,-3.4666,-3.4673,-3.4727,-3.4742,-3.4701,-3.4699,-3.4708,-3.476,-3.4779,-3.4785,-3.4869,-3.4801,-3.4805,-3.4808,-3.481,-3.5016,-3.5018,0,0,0,0,0,0,-3.4578,-3.4589,-3.4699,-3.4703,-3.4623,-3.4671,-3.4678,-3.4706,-3.4742,-3.4745,-3.471,-3.4706,-3.4772,-3.4779,-3.4787,-3.4878,-3.4806,-3.481,-3.4813,-3.5013,-3.5016,-3.5019,0,0,0,0,0,0,-3.4575,-3.4588,-3.4697,-3.4646,-3.4659,-3.4676,-3.4707,-3.4708,-3.4727,-3.4748,-3.475,-3.4726,-3.477,-3.478,-3.4843,-3.488,-3.4812,-3.4817,-3.501,-3.5014,-3.5017,-3.506,0,0,0,0,0,0,-3.457,-3.4587,-3.4616,-3.4647,-3.4662,-3.4752,-3.4709,-3.4711,-3.4736,-3.4732,-3.4764,-3.4767,-3.4769,-3.4836,-3.4848,-3.4885,-3.4821,-3.5007,-3.5012,-3.5016,-3.5056,-3.5065,-3.5073,0,0,0,0,0,-3.4565,-3.4626,-3.4618,-3.4631,-3.4699,-3.4754,-3.4763,-3.4764,-3.4739,-3.4768,-3.4782,-3.4766,-3.4875,-3.4843,-3.4856,-3.4895,-3.5004,-3.501,-3.5016,-3.5052,-3.5063,-3.5073,0,0,0,0,0,0,-3.4598,-3.4629,-3.4621,-3.4693,-3.4721,-3.4749,-3.4786,-3.4777,-3.4812,-3.4807,-3.4807,-3.4815,-3.4879,-3.4894,-3.4858,-3.4971,-3.4936,-3.4944,-3.4958,-3.497,-3.4978,-3.4972,-3.4825,0,0,0,0,0,-3.4614,-3.4657,-3.4681,-3.4743,-3.4757,-3.477,-3.4794,-3.4793,-3.4821,-3.4833,-3.4851,-3.4879,-3.4919,-3.4946,-3.4984,-3.5059,-3.5065,-3.5092,-3.5101,-3.5108,-3.5115,-3.5154,-3.5166,-3.5038,-3.5038,-3.5038,0,0,-3.4647,-3.4669,-3.4696,-3.475,-3.4771,-3.4815,-3.478,-3.4827,-3.4859,-3.484,-3.49,-3.4915,-3.4946,-3.5015,-3.5046,-3.5029,-3.5152,-3.5115,-3.5121,-3.5124,-3.5161,-3.5174,-3.5184,-3.5042,-3.5041,-3.504,0,0,-3.4728,-3.475,-3.4803,-3.4826,-3.4859,-3.4867,-3.488,-3.491,-3.4918,-3.4979,-3.4965,-3.5004,-3.5073,-3.5096,-3.5116,-3.5208,-3.5194,-3.522,-3.5265,-3.5304,-3.5314,-3.5323,-3.5353,-3.5365,-3.5227,-3.5228,-3.5228,0,-3.4765,-3.4829,-3.4831,-3.488,-3.4904,-3.4889,-3.4942,-3.4964,-3.5008,-3.5025,-3.5005,-3.5092,-3.5113,-3.5186,-3.5208,-3.5226,-3.524,-3.5215,-3.5312,-3.5321,-3.533,-3.5359,-3.5371,-3.523,-3.523,-3.523,-3.523,0,-3.4872,-3.4917,-3.4956,-3.4998,-3.5027,-3.5078,-3.5087,-3.5115,-3.5112,-3.5122,-3.5184,-3.5208,-3.5251,-3.5269,-3.5266,-3.5342,-3.533,-3.5312,-3.5276,-3.5345,-3.5372,-3.5383,-3.5234,-3.5233,-3.5233,-3.5232,0,0,-3.4974,-3.5018,-3.5032,-3.5051,-3.5087,-3.5121,-3.5172,-3.5214,-3.5237,-3.5269,-3.531,-3.537,-3.5353,-3.5376,-3.5377,-3.5411,-3.5479,-3.5388,-3.5389,-3.5402,-3.5562,-3.5574,-3.5587,-3.5472,-3.5474,-3.5476,-3.5559,0,-3.5057,-3.5144,-3.5148,-3.5227,-3.5268,-3.5256,-3.5299,-3.5326,-3.5337,-3.5373,-3.5385,-3.5427,-3.5403,-3.5417,-3.545,-3.5464,-3.5511,-3.5458,-3.5509,-3.551,-3.5499,-3.5602,-3.5615,-3.5692,-3.557,-3.5572,-3.5573,0,-3.5164,-3.5199,-3.5282,-3.5312,-3.5329,-3.5368,-3.5407,-3.5442,-3.5472,-3.5478,-3.5504,-3.55,-3.555,-3.5515,-3.5584,-3.5548,-3.5569,-3.5579,-3.5582,-3.5585,-3.5544,-3.5605,-3.5717,-3.5728,-3.5591,-3.5589,-3.5588,0,-3.5228,-3.5296,-3.5354,-3.5371,-3.5408,-3.5435,-3.5451,-3.5479,-3.5504,-3.5538,-3.5554,-3.5594,-3.5615,-3.5645,-3.5651,-3.5625,-3.572,-3.5685,-3.5725,-3.5725,-3.5743,-3.5741,-3.5857,-3.5761,-3.5761,-3.576,-3.576,0,-3.5319,-3.537,-3.5383,-3.5419,-3.5476,-3.548,-3.5536,-3.555,-3.5575,-3.5613,-3.5606,-3.5641,-3.5648,-3.5685,-3.569,-3.5746,-3.5756,-3.5761,-3.5762,-3.5761,-3.576,-3.5773,-3.5767,-3.5764,-3.5763,-3.5762,-3.5762,0,-3.5399,-3.541,-3.5473,-3.5502,-3.5511,-3.5551,-3.5576,-3.561,-3.5621,-3.5669,-3.5681,-3.5697,-3.5741,-3.575,-3.5802,-3.5805,-3.5871,-3.5867,-3.586,-3.5859,-3.5898,-3.5893,-3.6024,-3.6041,-3.5935,-3.5936,-3.5937,0,-3.5455,-3.5494,-3.5528,-3.5553,-3.557,-3.5611,-3.5636,-3.5642,-3.5668,-3.5706,-3.5735,-3.5778,-3.5812,-3.5882,-3.5898,-3.5937,-3.5933,-3.5976,-3.5939,-3.5936,-3.5931,-3.5928,-3.5931,-3.5983,-3.5984,-3.5985,-3.5985,0,-3.5553,-3.5556,-3.5593,-3.5632,-3.5662,-3.5693,-3.5723,-3.5744,-3.5753,-3.5784,-3.5828,-3.5854,-3.5907,-3.5949,-3.5989,-3.6005,-3.5997,-3.5998,-3.6008,-3.6007,-3.6,-3.6002,-3.5878,-3.5994,-3.5993,-3.5992,-3.5992,-3.5992,-3.5621,-3.5655,-3.5684,-3.5725,-3.5748,-3.5775,-3.5808,-3.5823,-3.586,-3.5903,-3.5905,-3.5953,-3.5982,-3.6034,-3.6053,-3.609,-3.6077,-3.6093,-3.6097,-3.61,-3.6103,-3.5997,-3.6098,-3.6098,-3.6097,-3.6097,-3.6097,0,-3.5717,-3.5735,-3.5773,-3.5814,-3.5846,-3.5837,-3.5869,-3.5896,-3.5938,-3.5966,-3.6,-3.605,-3.6091,-3.6111,-3.6152,-3.6178,-3.6175,-3.6188,-3.6185,-3.6188,-3.6113,-3.6099,-3.6189,-3.6189,-3.6189,-3.6189,-3.6189,-3.6189,-3.577,-3.5826,-3.5833,-3.59,-3.5918,-3.5965,-3.5984,-3.6009,-3.6031,-3.6088,-3.6122,-3.6135,-3.6159,-3.6201,-3.6238,-3.6243,-3.6257,-3.6272,-3.6275,-3.6203,-3.6194,-3.6185,-3.6171,-3.6275,-3.6276,-3.6346,-3.6347,-3.6348]},{"header":{"parameterUnit":"m.s-1","parameterCategory":1,"la1":30.2991,"la2":30.254,"lo1":-89.0895,"lo2":-89.0444,"dy":0.0017,"dx":0.0017,"nx":28,"ny":28,"refTime":"2024-05-30T03:00:00:Z","depth":0,"parameterNumber":3,"parameterNumberName":"V-component_of_WINDS"},"data":[0,0,0,0,0,0,0,0,0,0,0,0,0,0,0,0,0,0,0,0,0,0,0,0,0,0,0,0,0,0,0,0,0,0,0,0,0,0,0,0,0,0,0,0,0,0,0,0,0,0,0,0,0,0,0,0,0,0,4.1114,4.1114,0,4.1157,4.1158,4.1158,4.1115,4.1114,4.1112,4.111,4.115,4.1153,4.1155,0,0,0,0,0,0,0,0,0,0,0,0,0,4.0989,4.0991,4.1114,4.1114,4.1115,4.1157,4.1158,4.1159,4.1116,4.1114,4.1112,4.111,4.1149,4.1152,4.1156,0,0,0,0,0,0,0,0,0,0,0,0,0,4.1039,4.0992,4.1114,4.1099,4.1098,4.1157,4.1158,4.1159,4.1116,4.1114,4.1111,4.1109,4.1148,4.1152,4.1156,4.1231,0,0,4.1168,4.117,0,0,0,0,0,0,0,0,4.1036,4.1043,4.11,4.11,4.1099,4.1129,4.1128,4.1183,4.1117,4.1109,4.111,4.1107,4.1145,4.1149,4.1162,4.1233,4.1234,4.1168,4.1171,4.1173,4.1174,0,0,0,0,0,0,0,4.1032,4.1041,4.1131,4.1101,4.11,4.1088,4.1093,4.1138,4.114,4.1109,4.1107,4.1113,4.1144,4.1159,4.1163,4.1235,4.1168,4.1172,4.1174,4.1176,4.1368,4.1371,0,0,0,0,0,0,4.1031,4.1038,4.1129,4.1132,4.1061,4.1093,4.1097,4.1121,4.114,4.114,4.1115,4.111,4.1153,4.1158,4.1164,4.1252,4.1172,4.1176,4.1178,4.1366,4.1369,4.1372,0,0,0,0,0,0,4.1029,4.104,4.1128,4.1085,4.1095,4.1098,4.1125,4.1124,4.1138,4.1144,4.1143,4.113,4.1151,4.1159,4.1215,4.1253,4.1178,4.1182,4.1362,4.1367,4.137,4.143,0,0,0,0,0,0,4.1025,4.1039,4.1069,4.1086,4.1097,4.1179,4.1127,4.1126,4.1146,4.1141,4.1158,4.1158,4.115,4.1209,4.1219,4.1257,4.1185,4.1359,4.1364,4.1369,4.1424,4.1435,4.1445,0,0,0,0,0,4.1021,4.1083,4.107,4.1082,4.1135,4.1181,4.1188,4.1179,4.1149,4.1178,4.1182,4.1158,4.1248,4.1215,4.1226,4.1266,4.1356,4.1363,4.1369,4.142,4.1433,4.1445,0,0,0,0,0,0,4.1068,4.1084,4.1071,4.114,4.116,4.1174,4.121,4.1193,4.122,4.1214,4.12,4.1204,4.1264,4.1271,4.1234,4.1339,4.1297,4.1306,4.1332,4.1345,4.1355,4.1352,4.1188,0,0,0,0,0,4.1087,4.1125,4.1137,4.1197,4.1208,4.1208,4.1227,4.1219,4.1238,4.1246,4.1253,4.1271,4.1303,4.1325,4.1355,4.1426,4.1428,4.1458,4.1469,4.1477,4.1484,4.1521,4.1535,4.1392,4.1392,4.1392,0,0,4.1125,4.1139,4.1164,4.1207,4.1221,4.1259,4.1215,4.1257,4.1285,4.1251,4.1305,4.1312,4.1331,4.1394,4.1423,4.1402,4.1524,4.1485,4.1492,4.1494,4.1529,4.1542,4.1554,4.1396,4.1396,4.1395,0,0,4.1215,4.123,4.1281,4.1297,4.132,4.1319,4.1332,4.1349,4.1352,4.1406,4.1382,4.1414,4.1471,4.1485,4.15,4.1596,4.1575,4.1606,4.1659,4.1696,4.1707,4.1717,4.175,4.1762,4.1614,4.1614,4.1614,0,4.1259,4.1317,4.1309,4.1354,4.1373,4.1347,4.1397,4.1413,4.1443,4.1456,4.1433,4.1503,4.1515,4.1581,4.1605,4.1618,4.163,4.1604,4.1706,4.1716,4.1725,4.1756,4.1769,4.1618,4.1617,4.1617,4.1616,0,4.137,4.1411,4.145,4.1482,4.1506,4.1553,4.1551,4.1575,4.1565,4.1567,4.1622,4.1635,4.1667,4.1682,4.1672,4.1747,4.1733,4.1709,4.1666,4.1742,4.1772,4.1784,4.1623,4.1621,4.162,4.1619,0,0,4.1489,4.1517,4.1531,4.1546,4.1569,4.16,4.1646,4.1679,4.17,4.1723,4.176,4.1809,4.1786,4.1803,4.1794,4.1826,4.1901,4.1797,4.1798,4.1815,4.1983,4.2001,4.2015,4.1887,4.189,4.1892,4.1981,0,4.1578,4.166,4.1654,4.173,4.1767,4.1743,4.1783,4.1801,4.1805,4.1835,4.1838,4.1873,4.1841,4.1851,4.1882,4.1885,4.1934,4.1879,4.192,4.1922,4.1915,4.203,4.2049,4.2133,4.1993,4.1995,4.1996,0,4.1693,4.1721,4.1802,4.182,4.1836,4.1872,4.1902,4.1932,4.1952,4.1952,4.1971,4.1957,4.2002,4.196,4.2021,4.1984,4.2,4.2005,4.2008,4.201,4.1962,4.2034,4.216,4.2172,4.2014,4.2013,4.2011,0,4.177,4.1828,4.1884,4.1897,4.192,4.1946,4.1956,4.1974,4.1994,4.202,4.2033,4.2063,4.2079,4.2102,4.2096,4.2066,4.2159,4.2116,4.2158,4.2158,4.2177,4.2176,4.2306,4.2191,4.2191,4.219,4.219,0,4.1869,4.1919,4.1919,4.1953,4.2008,4.2,4.2054,4.2061,4.2078,4.2111,4.2092,4.2124,4.2115,4.2146,4.2142,4.2193,4.22,4.22,4.2198,4.2201,4.2201,4.2211,4.2204,4.2194,4.2193,4.2192,4.2192,0,4.1964,4.1966,4.2025,4.2043,4.2048,4.2088,4.2102,4.2134,4.2136,4.2179,4.2189,4.2192,4.2227,4.2225,4.2264,4.2261,4.2324,4.2315,4.2317,4.2315,4.2357,4.2353,4.2496,4.2514,4.2389,4.239,4.2391,0,4.2027,4.2065,4.2087,4.211,4.2123,4.2158,4.218,4.2174,4.2196,4.2222,4.225,4.2285,4.2312,4.237,4.2374,4.2405,4.2396,4.2444,4.24,4.2402,4.2395,4.2393,4.2396,4.2452,4.2454,4.2455,4.2456,0,4.2138,4.2137,4.2169,4.2202,4.2228,4.2253,4.2276,4.2295,4.2291,4.2317,4.2354,4.2376,4.2417,4.2451,4.248,4.2489,4.2472,4.247,4.2481,4.2484,4.2483,4.2483,4.234,4.2466,4.2465,4.2465,4.2464,4.2464,4.2217,4.225,4.2271,4.2307,4.2324,4.2346,4.2377,4.2384,4.2415,4.245,4.2444,4.2486,4.2504,4.2541,4.2554,4.2585,4.2567,4.2584,4.2588,4.2591,4.2596,4.248,4.259,4.259,4.259,4.2589,4.2589,0,4.2326,4.2339,4.2373,4.2406,4.2434,4.2418,4.2442,4.2466,4.2504,4.2524,4.2551,4.2594,4.2627,4.2635,4.2666,4.269,4.2683,4.2698,4.2696,4.2698,4.261,4.2597,4.2704,4.2704,4.2704,4.2703,4.2703,4.2703,4.2386,4.244,4.2442,4.2504,4.2516,4.2558,4.2573,4.2593,4.2609,4.2658,4.2686,4.2691,4.2706,4.2739,4.2768,4.2769,4.2781,4.28,4.2798,4.2715,4.2704,4.2693,4.268,4.2802,4.2803,4.2882,4.2883,4.2883]}]]